sat.trackr.live / text

‹ back to catalog

STARLINK-33590

NORAD 64316 · 2025-123AB

PAYLOAD ACTIVE UNKNOWN

§ Identity

Operator
Country
US
Launch date
2025-06-08
Launch site
AFWTR
Launch vehicle
Mass (kg)
RCS (m²)

Purposes: comms

External: N2YO · Heavens-Above · Gunter

§ Orbital elements

Epoch: 2026-05-25T00:34:14.522016Z

Period
96.11 min
Inclination
70.0015°
Eccentricity
0.0002523
Mean motion
14.98337411 rev/d
Perigee alt
570.3 km
Apogee alt
573.8 km
Semi-major
6,950.2 km
B*
-1.1993e-4
RAAN
1.9454°
Arg perigee
268.6431°
Mean anomaly
91.4439°
Rev number
5,305

§ Raw data

STARLINK-335901 64316U 25123AB  26145.02377919 -.00001524  00000+0 -11993-3 0  99982 64316  70.0015   1.9454 0002523 268.6431  91.4439 14.98337411 53054

JSON: /api/v1/satellites/64316 · /tle

For live sub-satellite position, see the globe view (requires WebGL).

§ Visibility from observer

Set your observer location to see the next 7 days of passes ≥ 10°. The values pass through the URL so the page stays shareable.

No JS? Fill the form by hand. The geolocation button needs JavaScript.